Regional Weather Roundup
Issued by NWS Midland/Odessa, TX

Skip options and go directly to product.
Home | Oldest Version | Previous Version | Current Version | All | Text Only | Save Text | Print | Product List | Glossary Off

Skip product version selection by date and time.   

946
ASUS44 KMAF 282210
RWRMAF
MIDLAND AREA WEATHER ROUNDUP
NATIONAL WEATHER SERVICE MIDLAND TX
400 PM CST WED JAN 28 2015

...IN SOUTHWEST TEXAS AND SOUTHEAST NEW MEXICO...

CITY           SKY/WX    TMP DP  RH WIND       PRES   REMARKS
ALPINE         MOSUNNY   75  44  33 W7        30.19S
ANDREWS        FAIR      76  39  25 W10G18    30.06F
ARTESIA        SUNNY     73  39  29 NE5       30.07F
BIG SPRING     SUNNY     80  40  24 W12       30.06S
CARLSBAD       SUNNY     77  36  22 W22       30.05F
DRYDEN           N/A     80  40  23 SE8       30.04F
FORT STOCKTON  SUNNY     79  45  29 NW3       30.06F
GUAD PASS      SUNNY     69  38  32 W29G35    30.16F
HOBBS          SUNNY     73  36  25 W13G21    30.09S
MARFA          MOSUNNY   70  45  40 S10       30.18S
MIDLAND AIRPK  SUNNY     79  40  24 W10G16    30.06S
MIDLAND INTL   SUNNY     79  43  27 W13       30.05S
ODESSA         SUNNY     78  42  27 W12       30.06F
PECOS          SUNNY     80  44  28 W10       30.04F
PRESIDIO       FAIR      75  46  35 CALM      30.06F
SEMINOLE       SUNNY     74  37  25 W12G17    30.07F
SNYDER         SUNNY    N/A N/A N/A SW14      30.02F
WINK           SUNNY     79  42  26 W7        30.03F
$$
...OTHER STATIONS IN TEXAS...

CITY           SKY/WX    TMP DP  RH WIND       PRES   REMARKS
ABILENE        SUNNY     80  43  26 SW15      30.00F
AMARILLO       SUNNY     70  31  23 N8        30.02R
AUSTIN         MOSUNNY   79  41  25 S13       30.07F
BROWNSVILLE    PTSUNNY   74  59  59 S17       30.13F
CORPUS CHRISTI PTSUNNY   75  54  47 SE18      30.11F
DALLAS FTW     CLOUDY    77  43  29 S15       29.98F
DEL RIO        SUNNY     81  34  18 SE16      30.03F
EL PASO        MOSUNNY   72  37  28 VRB3      30.11F
HOUSTON INT    MOSUNNY   76  48  37 SE16      30.10F
LUBBOCK        MOSUNNY   76  29  17 W22G31    30.01S
SAN ANGELO     SUNNY     80  41  24 S12       30.02F
SAN ANTONIO    PTSUNNY   79  38  22 SE17      30.08F
WACO           MOSUNNY   79  44  28 S17       30.02F
WICHITA FALLS  NOT AVBL
$$
...OTHER LOCATIONS IN NEW MEXICO...

CITY           SKY/WX    TMP DP  RH WIND       PRES   REMARKS
ALAMAGORDO     MOSUNNY   68  32  26 N5        30.13S
ALBUQUERQUE    PTSUNNY   63  27  25 NW10      30.16F
CANNON AFB     SUNNY     69  33  26 W22G28    30.03F
CLOVIS         SUNNY     70  34  26 W14G20    30.04S
HOLLOMAN AFB   MOSUNNY   69  36  29 NW2       30.11F
ROSWELL        SUNNY     73  39  29 S9        30.07S
RUIDOSO        MOSUNNY   57  25  28 NW8       30.22S
SANTA FE       SUNNY     57  26  30 N12       30.15F
TRUTH OR CONSE SUNNY     67  34  29 S3        30.12F
TUCUMCARI      MOSUNNY   71  29  21 S8        30.00F
$$

USA.gov is the U.S. government's official web portal to all federal, state and local government web resources and services.